Location: Byhalia Creek
(34.8270°N, 89.8040°W)
Time: 09:08:20
(UTC+00:00)

ADEOS II - Pass Details

Date: 22 April 2026
Orbit: 793 x 795 km, 98.8° (Epoch: 15 May)

Event Time Altitude Azimuth Distance (km) Brightness Sun altitude
Rises 10:32:12 0° 348° (NNW) 3,299 5.4 -9.9°
Reaches altitude 10° 10:36:11 10° 318° (NW) 2,364 4.3 -9.1°
Maximum altitude 10:37:55 12° 298° (WNW) 2,246 4.0 -8.8°
Drops below altitude 10° 10:39:39 10° 278° (W) 2,359 4.0 -8.4°
Enters shadow 10:40:34 - 269° (W) 2,506 4.1 -8.3°
